Location: Chuathbaluk
(61.5726°N, 159.2454°W)
Time: 17:31:55
(UTC+00:00)

ZACube-1 - Pass Details

Date: 20 January 2021
Orbit: 583 x 666 km, 97.6° (Epoch: 04 March)

Event Time Altitude Azimuth Distance (km) Brightness Sun altitude
Rises 03:13:07 0° 184° (S) 2,939 ? -7.0°
Reaches altitude 10° 03:15:24 10° 192° (SSW) 2,047 ? -7.3°
Maximum altitude 03:19:39 42° 263° (W) 947 ? -7.7°
Drops below altitude 10° 03:24:00 10° 335° (NNW) 2,097 ? -8.2°
Sets 03:26:22 0° 342° (NNW) 3,020 ? -8.4°
